Weather observations for the past three days for
Door County Cherryland Airport
Imperial (Metric)
Date Time (cdt) Wind (mph) Vis. (mi.) Weather Sky Cond. Temperature (ºF) Relative Humidity Wind Chill (°F) Heat Index (°F) Pressure Precipitation (in)
Air Dwpt 6 hour altimeter (in) sea level (mb) 1 hr 3 hr 6 hr
Max. Min.
20 20:56 NE 6 7.00 Overcast FEW055 OVC085 73 68 84% 30.08 1018.2
20 17:56 SW 7 10.00 Fair CLR 81 60.1 49% 82 30.05 1017.2
20 16:56 W 8 10.00 A Few Clouds FEW090 82 61 49% 83 30.06 1017.4
20 15:56 W 9 10.00 Mostly Cloudy BKN060 BKN090 81 60.1 49% 82 30.06 1017.6
20 14:56 W 10 10.00 Fair CLR 81 60.1 49% 82 30.07 1017.7
20 13:56 W 12 10.00 Fair CLR 81 59 47% 81 30.08 1018.2
20 12:56 W 9 10.00 Fair CLR 80.1 55.9 81 66.9 44% 80 30.08 1018.2
20 11:56 W 9 10.00 Fair CLR 79 59 50% 80 30.08 1018.3
20 10:56 W 13 10.00 Fair CLR 78.1 61 56% 80 30.09 1018.6
20 09:56 W 8 10.00 Fair CLR 75 60.1 60% 77 30.09 1018.6
20 08:56 W 8 10.00 Fair CLR 73 60.1 64% 30.1 1018.9
20 07:56 W 8 10.00 Fair CLR 70 61 73% 30.11 1019.3
20 06:56 W 3 10.00 Fair CLR 66.9 62.1 66.9 63 84% 30.1 1018.9
20 05:56 W 6 10.00 Fair CLR 64 61 90% 30.09 1018.5
20 04:56 W 6 10.00 Fair CLR 64 60.1 87% 30.08 1018.2
20 03:56 W 6 10.00 Fair CLR 64 60.1 87% 30.07 1018.0
20 02:56 W 6 10.00 Fair CLR 64 59 84% 30.07 1017.9
20 01:56 SW 7 10.00 Fair CLR 64.9 57.9 78% 30.07 1018.1
20 00:56 SW 7 10.00 Fair CLR 64.9 59 73 64.9 81% 30.08 1018.4
19 23:56 SW 8 10.00 Fair CLR 66 59 78% 30.09 1018.8
19 22:56 SW 8 10.00 Fair CLR 66 59 78% 30.1 1018.8
19 20:56 S 8 1.75 Fair with Haze CLR 68 60.1 76% 30.09 1018.5
19 18:56 S 13 10.00 Fair CLR 73 59 80.1 73 62% 30.08 1018.1
19 17:56 S 14 10.00 A Few Clouds FEW055 75.9 59 56% 78 30.08 1018.1
19 16:56 SW 9 10.00 Fair CLR 79 55 44% 80 30.1 1018.7
19 15:56 Vrbl 6 10.00 Partly Cloudy SCT060 78.1 55 45% 79 30.12 1019.3
19 14:56 W 9 10.00 A Few Clouds FEW060 78.1 55 45% 79 30.12 1019.5
19 13:56 W 12 G 16 10.00 A Few Clouds FEW055 77 54 45% 78 30.13 1019.7
19 12:56 W 12 G 17 10.00 Mostly Cloudy BKN055 77 53.1 78.1 63 43% 78 30.14 1020.2
19 11:56 W 10 10.00 Fair CLR 75.9 53.1 45% 78 30.15 1020.4
19 10:56 W 12 10.00 Fair CLR 75 54 48% 78 30.16 1020.9
19 09:56 W 8 10.00 Fair CLR 73 55 53% 30.17 1021.3
19 08:56 W 5 10.00 Fair CLR 71.1 57.9 63% 30.18 1021.7
19 07:56 W 8 10.00 Fair CLR 66 59 78% 30.18 1021.7
19 06:56 W 6 10.00 Fair CLR 63 57.9 63 57.9 84% 30.18 1021.6
19 05:56 W 6 10.00 Fair CLR 60.1 55.9 86% 30.16 1021.0
19 04:56 W 6 10.00 Fair CLR 59 55.9 90% 30.15 1020.9
19 03:56 W 5 10.00 Fair CLR 59 55.9 90% 30.15 1020.5
19 02:56 SW 6 10.00 Fair CLR 57.9 55.9 93% 30.14 1020.4
19 01:56 SW 7 10.00 Fair CLR 60.1 55.9 86% 30.14 1020.4
19 00:56 S 10 10.00 Fair CLR 62.1 57 68 62.1 84% 30.15 1020.6
18 23:56 SW 10 10.00 Fair CLR 62.1 55.9 80% 30.16 1020.9
18 22:56 SW 9 10.00 Fair CLR 63 55.9 78% 30.16 1021.0
18 21:56 S 7 10.00 Fair CLR 62.1 55.9 80% 30.17 1021.4
18 20:56 S 8 7.00 Fair CLR 63 55 76% 30.16 1021.1
18 19:56 S 7 10.00 Fair CLR 66 54 65% 30.16 1021.0
18 18:56 S 8 10.00 Fair CLR 68 54 72 68 61% 30.17 1021.3
18 17:56 SE 9 10.00 Fair CLR 69.1 53.1 57% 30.17 1021.5
18 16:56 SE 12 10.00 Fair CLR 69.1 54 59% 30.18 1021.7
18 15:56 S 8 10.00 Fair CLR 70 54 57% 30.19 1022.0
18 14:56 E 7 10.00 Mostly Cloudy BKN046 71.1 55 57% 30.2 1022.3
18 13:56 Vrbl 3 10.00 Fair CLR 70 53.1 55% 30.2 1022.3
18 12:56 Vrbl 7 10.00 Fair CLR 71.1 50 71.1 62.1 47% 30.2 1022.4
18 11:56 NE 12 10.00 Fair CLR 69.1 51.1 53% 30.2 1022.5
18 10:56 N 9 10.00 Fair CLR 66.9 50 55% 30.2 1022.5
18 09:56 NE 8 10.00 Fair CLR 66 55 68% 30.2 1022.3
18 08:56 N 8 10.00 Fair CLR 64 55 73% 30.2 1022.4
18 07:56 NW 10 10.00 Fair CLR 63 53.1 70% 30.2 1022.4
18 06:56 NW 7 10.00 Fair CLR 62.1 54 62.1 59 75% 30.2 1022.5
18 05:56 NW 5 10.00 A Few Clouds FEW047 60.1 53.1 78% 30.19 1022.2
18 04:56 NW 6 10.00 Fair CLR 60.1 53.1 78% 30.18 1021.7
18 03:56 NW 3 10.00 Fair CLR 60.1 53.1 78% 30.16 1021.1
Date Time (cdt) Wind (mph) Vis. (mi.) Weather Sky Cond. Air Dwpt Max. Min. Relative Humidity Wind Chill (°F) Heat Index (°F) altimeter (in) sea level (mb) 1 hr 3 hr 6 hr
6 hour
Temperature (ºF) Pressure Precipitation (in)